Overview Statistics Trail Chart Weather Telemetry Raw packets
 

This is the latest recevied weather packets stored in our database for station/object SP6FIG. If no packets are shown the sender has not sent any weather packets the latest 10 day(s).

<< 1 2 3 4 5 6 >>
Time Temp. Humidity Pressure Rain* Wind** Luminosity Snow
1777900229 25.56° C 30% 964.4 hPa - - - -
1777899629 25° C 34% 964.6 hPa - - - -
1777899029 25° C 33% 964.6 hPa - - - -
1777898429 25° C 30% 964.7 hPa - - - -
1777897829 25° C 32% 964.6 hPa - - - -
1777897229 25° C 31% 964.8 hPa - - - -
1777896629 25° C 31% 964.9 hPa - - - -
1777896029 25° C 33% 964.9 hPa - - - -
1777895429 25° C 32% 964.9 hPa - - - -
1777894829 25° C 31% 965 hPa - - - -
1777894229 25° C 32% 964.9 hPa - - - -
1777893629 25° C 31% 964.9 hPa - - - -
1777893043 25° C 32% 965 hPa - - - -
1777892429 24.44° C 32% 965 hPa - - - -
1777891829 24.44° C 32% 965.1 hPa - - - -
1777891229 24.44° C 32% 965.2 hPa - - - -
1777890629 24.44° C 32% 965.4 hPa - - - -
1777890045 24.44° C 32% 965.4 hPa - - - -
1777889429 24.44° C 32% 965.5 hPa - - - -
1777888829 24.44° C 32% 965.6 hPa - - - -
1777888229 24.44° C 33% 965.7 hPa - - - -
1777887629 24.44° C 33% 965.7 hPa - - - -
1777887032 24.44° C 33% 965.8 hPa - - - -
1777886429 24.44° C 34% 965.9 hPa - - - -
1777885829 24.44° C 34% 965.9 hPa - - - -

* Rain since midnight (hover to see other rain measurements)
** Current wind speed in m/s (hover to see current wind gust speed)